Location: *
(49.5193°S, 167.2592°W)
Time: 12:04:25
(UTC+00:00)

Daily predictions for brighter satellites

Satellite Brightness Start Highest point End
(mag) Time Altitude Azimuth Time Altitude Azimuth Time Altitude Azimuth
Cosmos 2263 Rocket 3.9 15:07:39 27° SE 15:08:07 27° SE 15:12:57 10° E
CZ-4C R/B 3.5 15:35:01 39° S 15:35:01 39° S 15:39:40 10° SE
USA 229 DEB 3.7 15:35:51 66° NNE 15:35:51 66° NNE 15:41:23 10° NE
USA 229 3.7 15:35:56 67° NNE 15:35:56 67° NNE 15:41:30 10° NE
Cosmos 1980 Rocket 3.5 15:32:43 23° NNE 15:35:28 37° ENE 15:40:38 10° SE
Cosmos 2369 4.1 15:38:46 62° E 15:38:46 62° E 15:44:08 10° SSE
Okean O Rocket 3.2 15:34:15 10° NE 15:37:18 34° ENE 15:37:18 34° ENE
BREEZE-M R/B 4.2 15:38:52 87° W 15:38:59 90° S 15:50:46 10° E
Cosmos 1898 Rocket 4.3 15:45:46 47° NE 15:45:46 47° NE 15:49:35 10° NNE
NOSS 3-1 (A) 3.4 15:47:29 77° NE 15:47:29 77° NE 15:52:39 10° NE
NOSS 2-3 (C) 4.4 15:51:02 86° SW 15:51:11 89° NW 15:56:50 10° NE
Cosmos 468 Rocket 4.5 15:50:36 52° NE 15:51:24 58° ENE 15:56:34 10° SSE
Cosmos 2278 4.1 15:56:07 38° N 15:58:12 63° ENE 16:03:51 10° SE
USA 234 3.3 15:54:38 10° ENE 16:01:13 72° SSE 16:02:51 52° SW
Cosmos 1697 Rocket 2.6 16:02:53 78° S 16:02:53 78° S 16:08:20 10° SSE
SMAP 3.7 16:00:41 10° NNE 16:05:16 55° ESE 16:07:02 34° SSE
ATLAS 2AS CENTAUR R/B 4.0 16:04:40 22° SSW 16:05:48 23° S 16:10:55 10° SE
Cosmos 1092 Rocket 3.9 15:59:44 10° N 16:05:58 85° E 16:12:15 10° S
CZ-4 R/B 4.3 16:06:53 10° E 16:09:25 16° ESE 16:11:59 10° SSE
Timation 1 Rocket 4.2 16:08:50 63° SW 16:09:54 86° WNW 16:15:57 10° NNE
CZ-4B R/B 3.2 16:04:35 10° NNE 16:10:12 88° ESE 16:12:45 35° SSW
Cosmos 1953 2.9 16:14:22 55° NE 16:14:22 55° NE 16:17:44 10° NNE
Lacrosse 5 rocket 2.7 16:16:13 29° SSE 16:16:13 29° SSE 16:18:38 10° SE
Radarsat Rocket 4.1 16:08:08 10° NNE 16:15:23 81° WNW 16:20:01 21° SSW
Cosmos 1937 Rocket 3.3 16:15:37 81° W 16:15:42 81° WNW 16:20:54 10° NNE
Nadezhda 4 Rocket 4.2 16:19:04 50° SW 16:19:04 50° SW 16:24:21 10° S
Cosmos 1025 Rocket 3.0 16:23:13 78° SSE 16:23:13 78° SSE 16:27:20 10° S
YAOGAN 6 3.2 16:19:39 10° NNE 16:22:43 53° ENE 16:22:43 53° ENE
ADEOS Rocket 4.3 16:18:36 10° SSE 16:23:45 37° E 16:28:55 10° NNE
Meteor 2-13 Rocket 4.4 16:20:42 10° N 16:26:53 88° W 16:33:10 10° S
ASTEX 1 4.5 16:24:32 10° NNE 16:29:13 45° ESE 16:33:59 10° S
H-2A R/B 4.3 16:28:19 10° S 16:29:09 15° S 16:29:09 15° S
Cosmos 2227 4.1 16:30:35 37° SSW 16:33:00 87° WNW 16:38:41 10° NNE
AQUARIUS 4.1 16:29:05 10° NNE 16:33:38 88° E 16:35:53 30° SSW
Cosmos 2360 4.1 16:33:53 41° WNW 16:35:50 66° WSW 16:41:35 10° SSE
Meteor 1-16 Rocket 4.2 16:30:19 10° SSW 16:36:16 88° E 16:41:57 10° N
Meteor 1-21 4.4 16:35:57 44° WNW 16:37:07 51° WSW 16:42:46 10° S
ATLAS CENTAUR R/B 3.4 16:35:12 19° S 16:37:25 27° SSE 16:41:35 10° E
Cosmos 2322 Rocket 4.1 16:35:25 10° NNE 16:40:24 32° ENE 16:45:25 10° SE
IRS-1C Rocket 4.5 16:35:11 10° NNE 16:40:25 64° ESE 16:45:43 10° S
Cosmos 1726 3.3 16:43:50 30° NNW 16:43:50 30° NNW 16:45:56 10° N
Radarsat 4.5 16:38:11 10° NNE 16:43:27 81° WNW 16:48:28 12° SSW
Cosmos 1536 Rocket 3.4 16:39:37 10° NNW 16:43:59 71° W 16:48:26 10° S
Meteor 2-8 Rocket 4.5 16:38:58 10° S 16:45:11 84° E 16:51:21 10° N
Aureole 3 4.2 16:40:45 10° S 16:45:40 57° ESE 16:49:30 10° NNE
Cosmos 1428 Rocket 4.4 16:40:13 10° NNW 16:46:33 72° W 16:52:59 10° S
Cosmos 1674 3.1 16:46:52 10° N 16:50:36 63° E 16:54:25 10° SSE
Cosmos 2263 Rocket 2.1 16:49:22 27° SW 16:52:37 72° WNW 16:58:18 10° NNE
Cosmos 1553 Rocket 4.0 16:46:18 10° SSW 16:52:49 78° W 16:59:12 10° N
Helios 1A Rocket 2.9 16:50:19 10° NNE 16:54:26 85° ESE 16:57:51 15° SSW
Envisat 3.1 16:52:29 10° N 16:57:29 52° W 17:01:07 19° SSW
Cosmos 1606 Rocket 3.8 16:53:36 10° S 16:58:01 68° E 17:02:22 10° NNE
Cosmos 2298 Rocket 4.0 16:53:44 16° SSW 16:58:03 86° ESE 17:03:23 10° NNE
NOAA 12 4.0 16:54:29 10° N 16:59:44 64° WNW 17:05:02 10° SSW
Cosmos 1461 3.7 17:03:00 29° NW 17:03:00 29° NW 17:05:58 10° N
In-Cosmos 22 4.0 16:58:59 10° NNW 17:04:28 69° WSW 17:09:55 10° S
S3M 3.9 16:59:54 10° S 17:06:08 83° W 17:12:18 10° N
USA 267 3.3 17:01:09 10° ESE 17:07:49 89° NNE 17:14:27 10° WNW
Cosmos 2285 Rocket 4.0 17:02:17 12° SSW 17:08:26 72° WNW 17:14:52 10° NNE
NOAA 11 4.3 17:03:42 10° NNE 17:09:15 82° ESE 17:14:52 10° SSW
ATLAS 5 CENTAUR R/B 3.7 17:03:07 10° NNW 17:09:57 48° ENE 17:16:14 10° SE
Cosmos 1437 2.5 17:07:00 10° NNW 17:10:03 88° W 17:13:09 10° SSE
Cosmos 2208 Rocket 3.9 17:06:12 10° NNW 17:11:25 77° WSW 17:16:42 10° SSE
Cosmos 2360 Rocket 4.3 17:06:41 10° NNE 17:11:30 30° ENE 17:16:22 10° SE
Cosmos 1814 Rocket 4.0 17:08:23 10° NNW 17:13:43 79° WSW 17:19:10 10° SSE
Okean O Rocket 2.7 17:11:12 10° NNW 17:14:45 26° W 17:14:45 26° W
H-2A R/B 3.9 17:11:29 10° ENE 17:15:39 27° ESE 17:19:54 10° S
SKYMED 2 4.0 17:14:47 10° SSE 17:19:13 69° ENE 17:23:36 10° N
Cosmos 1980 Rocket 2.5 17:14:37 13° WNW 17:19:25 44° SW 17:24:50 10° SSE
Cosmos 1763 Rocket 4.0 17:15:53 17° WNW 17:19:32 37° SW 17:24:26 10° S
CORIOLIS 4.5 17:14:51 10° N 17:20:02 44° W 17:25:16 10° SSW
Cosmos 2084 4.2 17:18:23 18° SSW 17:21:22 48° SE 17:25:33 10° ENE
ARGOS Delta rocket 4.0 17:17:48 10° N 17:22:39 52° W 17:27:17 10° SSW
CZ-4C R/B 3.8 17:20:13 18° SW 17:23:31 24° S 17:28:25 10° SE
Cosmos 1726 Rocket 3.5 17:20:51 10° SSW 17:25:17 81° W 17:29:39 10° N
Okean 1-7 Rocket 4.4 17:24:12 10° N 17:28:35 56° E 17:33:04 10° SSE
Cosmos 1844 Rocket 3.3 17:23:42 10° SSW 17:29:24 58° SE 17:35:01 10° NE
CZ-2C R/B 4.3 17:28:31 10° NE 17:33:23 42° ESE 17:38:34 10° S
PSLV R/B 3.9 17:30:18 10° S 17:34:27 61° WSW 17:38:35 10° NNW
KORONAS-FOTON 4.1 17:33:11 10° NNW 17:36:51 42° WSW 17:40:36 10° S
Aureole 3 Rocket 4.2 17:36:45 19° W 17:36:59 19° W 17:40:05 10° NW
Cosmos 1939 Rocket 2.9 17:36:34 10° N 17:40:39 68° W 17:44:50 10° SSW
CSL-04 Rocket 4.0 17:35:48 10° NNE 17:41:12 69° ESE 17:46:46 10° SSW
Cosmos 1689 Rocket 3.3 17:39:19 10° SSW 17:41:51 23° WSW 17:44:22 10° WNW
Cosmos 1570 Rocket 4.5 17:37:12 10° NW 17:42:17 40° WSW 17:47:25 10° SSE
Cosmos 540 Rocket 3.8 17:37:25 10° NW 17:42:22 43° WSW 17:47:23 10° SSE
SMAP 4.3 17:39:24 10° NW 17:42:56 21° W 17:45:30 14° SW
CZ-4 R/B 1.5 17:39:38 10° N 17:43:52 74° WNW 17:48:12 10° SSW
SL-16 R/B 2.2 17:38:18 10° NNW 17:44:01 80° WSW 17:49:48 10° SSE
USA 234 3.7 17:38:05 10° NNE 17:44:26 49° NW 17:50:13 13° WSW
Cosmos 1626 2.1 17:43:00 10° NNW 17:46:46 76° W 17:50:36 10° S
CSL-04 Debris 4.3 17:41:28 10° NNE 17:46:54 79° ESE 17:52:24 10° SSW
Cosmos 1697 Rocket 4.0 17:44:41 15° WSW 17:47:28 21° SW 17:51:44 10° S
Cosmos 841 Rocket 4.0 17:43:35 10° NW 17:48:31 38° WSW 17:53:32 10° SSE
Cosmos 2228 3.5 17:44:41 10° SSW 17:48:43 37° W 17:52:40 10° NNW
Okean-O 2.9 17:45:11 10° N 17:49:33 51° W 17:53:59 10° SSW
Cosmos 1953 4.2 17:50:07 13° W 17:50:07 13° W 17:51:31 10° WNW
Cosmos 2278 Rocket 4.0 17:45:37 10° SSW 17:50:21 25° SE 17:55:02 10° E
SL-14 R/B 3.2 17:49:04 10° NNW 17:53:00 71° W 17:56:59 10° S
Orbus 7S? 3.9 17:50:42 10° NW 17:54:08 89° NE 18:01:43 10° ESE
Lacrosse 5 rocket 2.5 17:51:51 14° SW 17:54:38 28° S 17:58:18 10° ESE
Cosmos 1908 4.5 17:52:24 11° SW 17:55:09 21° W 17:58:08 10° NW
CZ-2D R/B 3.4 17:51:48 10° N 17:55:39 55° W 17:59:35 10° SSW
Cosmos 1125 Rocket 3.7 17:51:59 10° SSW 17:57:10 54° WNW 18:02:16 10° N
Cosmos 2098 Rocket 4.0 17:52:08 10° NNW 17:57:56 69° WSW 18:05:01 10° S
ATLAS 2AS CENTAUR R/B 3.6 17:52:33 10° SW 17:58:29 37° SSE 18:04:49 10° E
Cosmos 1300 2.9 17:56:45 10° SSW 18:00:34 52° W 18:04:20 10° N
Meteor 2-10 Rocket 4.3 17:59:27 10° S 18:05:06 58° ESE 18:10:27 10° NNE
SL-24 R/B 4.3 18:02:19 10° N 18:06:36 56° W 18:11:08 10° SSW
COSMO-SKYMED 1 3.0 18:03:02 10° S 18:07:13 42° WSW 18:11:23 10° NW
ASTEX 1 4.4 18:04:19 10° NW 18:08:26 26° W 18:12:37 10° SSW
Meteor 1-24 Rocket 3.6 18:03:13 10° NNW 18:08:33 62° WSW 18:13:55 10° S
ADEOS Rocket 3.2 18:04:14 10° S 18:09:22 38° WSW 18:14:29 10° NW
Cosmos 1818 3.5 18:05:22 10° NW 18:10:48 80° SW 18:16:17 10° SE
Cosmos 1892 Rocket 3.9 18:06:46 10° NNW 18:11:06 46° WSW 18:15:28 10° S
Cosmos 1455 3.3 18:10:30 10° S 18:14:13 46° ESE 18:17:53 10° NNE
SJ-11-01 4.4 18:09:45 10° NNE 18:14:33 89° W 18:19:24 10° SSW
SL-24 R/B - RUBIN 2 4.0 18:10:14 10° NNW 18:14:55 69° NE 18:19:16 10° SE
ATLAS CENTAUR R/B 1.8 18:12:01 10° SW 18:16:53 78° NW 18:21:44 10° NNE
YAOGAN 1 3.1 18:16:08 10° NNW 18:20:15 39° W 18:24:25 10° SSW
Cosmos 1356 Rocket 4.3 18:17:19 10° SSW 18:20:56 29° W 18:24:35 10° NNW
Cosmos 2266 Rocket 4.4 18:16:12 10° NW 18:22:08 41° WSW 18:28:02 10° S
Cosmos 1626 Rocket 3.6 18:17:55 10° N 18:22:17 87° E 18:26:44 10° S
Meteor 2-5 Rocket 4.2 18:18:47 10° NW 18:23:59 38° WSW 18:29:14 10° S
SJ-6B 3.9 18:20:27 10° NE 18:24:05 43° ESE 18:27:44 10° S
Cosmos 2322 Rocket 2.4 18:18:38 10° NW 18:24:13 52° SW 18:29:52 10° SSE
